This is the latest recevied weather packets stored in our database for station/object KC4LZN. If no packets are shown the sender has not sent any weather packets the latest 10 day(s).
| Time | Temp. | Humidity | Pressure | Rain* | Wind** | Luminosity | Snow |
|---|---|---|---|---|---|---|---|
| 1777230025 | 30° C | 54% | 1011.1 hPa | 0 mm | - | 787 W/m² | - |
| 1777229721 | 30° C | 53% | 1011 hPa | 0 mm | - | 792 W/m² | - |
| 1777229418 | 30° C | 49% | 1011 hPa | 0 mm | - | 801 W/m² | - |
| 1777229115 | 30° C | 51% | 1011.4 hPa | 0 mm | - | 807 W/m² | - |
| 1777228812 | 29.44° C | 51% | 1011.2 hPa | 0 mm | - | 822 W/m² | - |
| 1777228508 | 29.44° C | 53% | 1011.1 hPa | 0 mm | - | 827 W/m² | - |
| 1777228204 | 29.44° C | 56% | 1011.3 hPa | 0 mm | - | 836 W/m² | - |
| 1777227902 | 29.44° C | 53% | 1011.3 hPa | 0 mm | - | 845 W/m² | - |
| 1777227599 | 29.44° C | 53% | 1011.5 hPa | 0 mm | - | 848 W/m² | - |
| 1777227295 | 29.44° C | 57% | 1011.6 hPa | 0 mm | - | 854 W/m² | - |
| 1777226992 | 28.89° C | 53% | 1011.6 hPa | 0 mm | - | 860 W/m² | - |
| 1777226690 | 28.89° C | 62% | 1011.9 hPa | 0 mm | - | 868 W/m² | - |
| 1777226386 | 28.89° C | 58% | 1011.8 hPa | 0 mm | - | 441 W/m² | - |
| 1777226082 | 28.89° C | 60% | 1011.7 hPa | 0 mm | - | 900 W/m² | - |
| 1777225778 | 28.33° C | 65% | 1011.9 hPa | 0 mm | - | 897 W/m² | - |
| 1777225475 | 28.33° C | 68% | 1011.7 hPa | 0 mm | - | 913 W/m² | - |
| 1777225172 | 27.78° C | 68% | 1012 hPa | 0 mm | - | 913 W/m² | - |
| 1777224868 | 26.67° C | 76% | 1012.1 hPa | 0 mm | - | 968 W/m² | - |
| 1777224564 | 26.67° C | 74% | 1012 hPa | 0 mm | - | 140 W/m² | - |
| 1777224260 | 26.67° C | 75% | 1011.9 hPa | 0 mm | - | 391 W/m² | - |
| 1777223958 | 25.56° C | 79% | 1012.3 hPa | 0 mm | - | 276 W/m² | - |
| 1777223654 | 26.11° C | 85% | 1012 hPa | 1.27 mm | - | 195 W/m² | - |
| 1777223350 | 25.56° C | 84% | 1012.1 hPa | 6.1 mm | - | 956 W/m² | - |
| 1777223048 | 25° C | 87% | 1012.2 hPa | 11.94 mm | - | 942 W/m² | - |
| 1777222745 | 24.44° C | 89% | 1012.6 hPa | 13.72 mm | - | 989 W/m² | - |
* Rain latest hour (hover to see other rain measurements)
** Current wind speed in m/s (hover to see current wind gust speed)